INTELSAT 33E (IS-33E) (41748 NORAD) Tracking and Keplerian Element Data

This shows tracking and keplerian element data for the satellite.

Feedback or suggestion? Click here.




ElementValue
Catalog41748
NameINTELSAT 33E (IS-33E)
Epoch Orbit1892
Epoch Day269.12940096
Epoch Year2021
RAAN357.3978
Inclination0.0451
Eccentricity0.0002064
Argument of Perigee193.8529
Mean Anonmoly280.4912
Mean Motion1.00272322
Decay Rate4.6E-07
L11 41748U 16053B 21269.12940096 .00000046 00000-0 00000+0 0 9999
L22 41748 0.0451 357.3978 0002064 193.8529 280.4912 1.00272322 18922

Live tracking and technical data element details for INTELSAT 33E (IS-33E) (NORAD 41748). INTELSAT 33E (IS-33E) can be tracked NOW for your location showing map with azimuth and elevation plus other details from your city location.

Track the satellite on the map from your city or location and see movement details for azimuth, elevation, latitude, longitude, range, height, and movement on the map or in text.







IsCatalogInMostPopularTable: catalog: 41748, numindb: 567
Update: records affected: 1



GetName: 41748 INTELSAT 33E (IS-33E)

Hit Count: updated at: Mon, 27 Sep 2021 01:15:35 GMT